[[{"header":{"parameterUnit":"m.s-1","parameterCategory":1,"la1":30.2991,"la2":30.254,"lo1":-89.0895,"lo2":-89.0444,"dy":0.0017,"dx":0.0017,"nx":28,"ny":28,"refTime":"2024-06-21T21:00:00:Z","depth":0,"parameterNumber":2,"parameterNumberName":"U-component_of_WINDS"},"data":[0,0,0,0,0,0,0,0,0,0,0,0,0,0,0,0,0,0,0,0,0,0,0,0,0,0,0,0,0,0,0,0,0,0,0,0,0,0,0,0,0,0,0,0,0,0,0,0,0,0,0,0,0,0,0,0,0,0,-0.6942,-0.6941,0,-0.6822,-0.6821,-0.6819,-0.6773,-0.6774,-0.6774,-0.6775,-0.665,-0.6646,-0.6643,0,0,0,0,0,0,0,0,0,0,0,0,0,-0.7134,-0.713,-0.6942,-0.6941,-0.6939,-0.6822,-0.6821,-0.6819,-0.6773,-0.6774,-0.6774,-0.6775,-0.6651,-0.6647,-0.6642,0,0,0,0,0,0,0,0,0,0,0,0,0,-0.7036,-0.7129,-0.6943,-0.6903,-0.6898,-0.6823,-0.682,-0.6818,-0.6773,-0.6774,-0.6774,-0.6775,-0.6653,-0.6647,-0.6642,-0.6597,0,0,-0.6625,-0.6623,0,0,0,0,0,0,0,0,-0.7041,-0.7029,-0.691,-0.6905,-0.69,-0.6813,-0.6842,-0.6744,-0.6773,-0.6821,-0.6775,-0.6775,-0.6704,-0.6694,-0.667,-0.6591,-0.6586,-0.6625,-0.6621,-0.6619,-0.6617,0,0,0,0,0,0,0,-0.7048,-0.7034,-0.6895,-0.6908,-0.6902,-0.6891,-0.6878,-0.6823,-0.6761,-0.6816,-0.6813,-0.6799,-0.6701,-0.6676,-0.6667,-0.6584,-0.6625,-0.662,-0.6616,-0.6614,-0.6465,-0.6464,0,0,0,0,0,0,-0.7062,-0.704,-0.6898,-0.6891,-0.6973,-0.6887,-0.6872,-0.684,-0.6761,-0.6749,-0.6799,-0.6798,-0.6685,-0.6673,-0.6662,-0.6606,-0.6619,-0.6614,-0.6611,-0.6465,-0.6464,-0.6464,0,0,0,0,0,0,-0.7066,-0.705,-0.6903,-0.6964,-0.6945,-0.6883,-0.6848,-0.6838,-0.6812,-0.6748,-0.6736,-0.6785,-0.6685,-0.667,-0.6614,-0.6601,-0.6611,-0.6606,-0.6466,-0.6465,-0.6464,-0.6491,0,0,0,0,0,0,-0.7072,-0.7051,-0.7033,-0.6964,-0.6942,-0.6857,-0.6847,-0.6835,-0.6803,-0.68,-0.6731,-0.672,-0.6684,-0.6623,-0.6609,-0.6593,-0.6602,-0.6467,-0.6466,-0.6464,-0.6491,-0.6492,-0.6492,0,0,0,0,0,-0.7079,-0.7045,-0.7032,-0.7016,-0.6918,-0.6856,-0.6843,-0.6803,-0.6802,-0.6784,-0.6743,-0.6722,-0.6605,-0.6617,-0.6601,-0.6584,-0.6468,-0.6466,-0.6464,-0.6491,-0.6492,-0.6492,0,0,0,0,0,0,-0.7113,-0.7035,-0.702,-0.6963,-0.6917,-0.6849,-0.6824,-0.6804,-0.6756,-0.6755,-0.6707,-0.6691,-0.664,-0.6606,-0.6622,-0.6538,-0.6535,-0.653,-0.6561,-0.656,-0.6561,-0.6569,-0.6597,0,0,0,0,0,-0.7114,-0.707,-0.7005,-0.6961,-0.6938,-0.6886,-0.6857,-0.683,-0.678,-0.676,-0.6714,-0.6666,-0.6619,-0.6588,-0.654,-0.6487,-0.6472,-0.6468,-0.6468,-0.6468,-0.6464,-0.6435,-0.6433,-0.6459,-0.6459,-0.6459,0,0,-0.7115,-0.7067,-0.7042,-0.6967,-0.6927,-0.6884,-0.6869,-0.6823,-0.679,-0.6752,-0.6697,-0.6663,-0.6606,-0.6552,-0.6525,-0.6522,-0.6454,-0.6466,-0.6467,-0.6463,-0.6433,-0.6431,-0.6429,-0.6458,-0.6458,-0.6458,0,0,-0.7095,-0.7054,-0.7014,-0.6976,-0.6917,-0.6882,-0.6873,-0.6808,-0.6784,-0.6729,-0.67,-0.6661,-0.6579,-0.654,-0.651,-0.6479,-0.6459,-0.6465,-0.6465,-0.6437,-0.6435,-0.6433,-0.6423,-0.6419,-0.6462,-0.6462,-0.6462,0,-0.7103,-0.7036,-0.6995,-0.6951,-0.6919,-0.6885,-0.6845,-0.6809,-0.6738,-0.6717,-0.6715,-0.6614,-0.6573,-0.651,-0.6503,-0.6479,-0.6467,-0.6472,-0.6439,-0.6436,-0.6434,-0.6423,-0.6419,-0.6463,-0.6463,-0.6463,-0.6463,0,-0.705,-0.7004,-0.6979,-0.6912,-0.6878,-0.6835,-0.6789,-0.6759,-0.6737,-0.6703,-0.6647,-0.6598,-0.6541,-0.6524,-0.65,-0.6458,-0.6458,-0.6448,-0.6444,-0.6433,-0.6423,-0.6418,-0.6465,-0.6464,-0.6464,-0.6464,0,0,-0.7045,-0.6959,-0.695,-0.692,-0.6855,-0.6819,-0.6776,-0.6721,-0.6697,-0.665,-0.6613,-0.6547,-0.6538,-0.6504,-0.6476,-0.6452,-0.6432,-0.6445,-0.6443,-0.6444,-0.6384,-0.6391,-0.6387,-0.6419,-0.6418,-0.6417,-0.6388,0,-0.7016,-0.6938,-0.6901,-0.684,-0.6797,-0.6766,-0.6729,-0.6686,-0.6654,-0.6614,-0.6579,-0.6533,-0.6524,-0.6504,-0.6479,-0.644,-0.6419,-0.6442,-0.6384,-0.6383,-0.6399,-0.6381,-0.6388,-0.6363,-0.6384,-0.6383,-0.6383,0,-0.697,-0.6925,-0.6859,-0.6801,-0.6782,-0.6749,-0.6697,-0.6659,-0.661,-0.6589,-0.6553,-0.6527,-0.6482,-0.6483,-0.642,-0.6436,-0.6412,-0.6389,-0.6388,-0.638,-0.6381,-0.6372,-0.6354,-0.635,-0.6375,-0.6376,-0.6377,0,-0.6974,-0.6896,-0.6847,-0.6823,-0.6753,-0.6731,-0.6702,-0.6653,-0.6623,-0.6578,-0.6558,-0.6508,-0.6481,-0.6443,-0.6405,-0.6409,-0.6347,-0.6344,-0.6328,-0.6329,-0.6315,-0.6316,-0.6291,-0.63,-0.63,-0.63,-0.63,0,-0.6944,-0.6905,-0.6848,-0.6818,-0.6774,-0.6734,-0.6691,-0.6659,-0.6617,-0.658,-0.6551,-0.6517,-0.6469,-0.643,-0.64,-0.6354,-0.6342,-0.6324,-0.6316,-0.6326,-0.6328,-0.6307,-0.6308,-0.6299,-0.6299,-0.63,-0.63,0,-0.6939,-0.6899,-0.6844,-0.6784,-0.6768,-0.6738,-0.6687,-0.6657,-0.6626,-0.658,-0.6567,-0.6517,-0.6469,-0.6428,-0.6365,-0.6346,-0.6298,-0.6289,-0.6315,-0.631,-0.6297,-0.6298,-0.6257,-0.625,-0.6265,-0.6265,-0.6265,0,-0.6923,-0.6892,-0.683,-0.6804,-0.6775,-0.6733,-0.6703,-0.6663,-0.6633,-0.6576,-0.6553,-0.6504,-0.6463,-0.6389,-0.6347,-0.6299,-0.6289,-0.6278,-0.6281,-0.6293,-0.6288,-0.629,-0.6288,-0.6277,-0.6277,-0.6277,-0.6277,0,-0.6898,-0.688,-0.6838,-0.679,-0.6755,-0.6715,-0.6674,-0.6654,-0.6607,-0.6575,-0.6527,-0.6495,-0.6432,-0.6384,-0.6333,-0.6302,-0.6282,-0.6277,-0.6271,-0.628,-0.6296,-0.6287,-0.6314,-0.6278,-0.6277,-0.6277,-0.6277,-0.6277,-0.6886,-0.6858,-0.681,-0.6765,-0.6731,-0.6694,-0.6663,-0.6629,-0.6588,-0.6534,-0.6514,-0.6465,-0.6419,-0.6347,-0.6318,-0.6279,-0.6276,-0.6267,-0.6264,-0.6262,-0.6264,-0.6304,-0.627,-0.627,-0.627,-0.627,-0.627,0,-0.6859,-0.6828,-0.6787,-0.6731,-0.6696,-0.6682,-0.6637,-0.6608,-0.6566,-0.6525,-0.6485,-0.6431,-0.6385,-0.6341,-0.6293,-0.6271,-0.6261,-0.626,-0.626,-0.6254,-0.627,-0.628,-0.6269,-0.6269,-0.6269,-0.6269,-0.6269,-0.6269,-0.6841,-0.6794,-0.6771,-0.6707,-0.6676,-0.6628,-0.6604,-0.657,-0.6538,-0.6479,-0.6441,-0.6413,-0.6371,-0.632,-0.6278,-0.6266,-0.625,-0.6251,-0.6237,-0.6252,-0.6253,-0.6253,-0.6263,-0.6248,-0.6248,-0.6224,-0.6224,-0.6224]},{"header":{"parameterUnit":"m.s-1","parameterCategory":1,"la1":30.2991,"la2":30.254,"lo1":-89.0895,"lo2":-89.0444,"dy":0.0017,"dx":0.0017,"nx":28,"ny":28,"refTime":"2024-06-21T21:00:00:Z","depth":0,"parameterNumber":3,"parameterNumberName":"V-component_of_WINDS"},"data":[0,0,0,0,0,0,0,0,0,0,0,0,0,0,0,0,0,0,0,0,0,0,0,0,0,0,0,0,0,0,0,0,0,0,0,0,0,0,0,0,0,0,0,0,0,0,0,0,0,0,0,0,0,0,0,0,0,0,3.6021,3.6021,0,3.6031,3.6031,3.6031,3.6076,3.6077,3.6078,3.6079,3.6084,3.6083,3.6082,0,0,0,0,0,0,0,0,0,0,0,0,0,3.6038,3.6037,3.6021,3.6021,3.6021,3.6031,3.6031,3.6031,3.6075,3.6077,3.6078,3.6079,3.6084,3.6083,3.6082,0,0,0,0,0,0,0,0,0,0,0,0,0,3.6037,3.6037,3.6021,3.6045,3.6047,3.6031,3.6031,3.6031,3.6075,3.6077,3.6078,3.608,3.6084,3.6083,3.6082,3.6042,0,0,3.6078,3.6077,0,0,0,0,0,0,0,0,3.6037,3.6036,3.6041,3.6043,3.6046,3.6054,3.6039,3.6034,3.6075,3.6064,3.6079,3.6081,3.6072,3.6072,3.607,3.6042,3.6043,3.6078,3.6077,3.6077,3.6076,0,0,0,0,0,0,0,3.6037,3.6036,3.6025,3.6041,3.6044,3.6054,3.6055,3.6038,3.6059,3.6065,3.6069,3.6069,3.6074,3.6071,3.6071,3.6043,3.6078,3.6077,3.6076,3.6075,3.5983,3.5981,0,0,0,0,0,0,3.6034,3.6036,3.6024,3.6025,3.6045,3.6052,3.6054,3.6049,3.6059,3.6062,3.6068,3.6071,3.6073,3.6072,3.6071,3.6025,3.6077,3.6075,3.6075,3.5984,3.5982,3.598,0,0,0,0,0,0,3.6034,3.6033,3.6024,3.6031,3.6031,3.605,3.6045,3.6049,3.6046,3.6061,3.6065,3.6062,3.6074,3.6073,3.6049,3.6026,3.6075,3.6074,3.5986,3.5984,3.5981,3.5932,0,0,0,0,0,0,3.6035,3.6033,3.6018,3.6031,3.6031,3.6003,3.6043,3.6048,3.6045,3.6049,3.6057,3.6059,3.6075,3.6051,3.6048,3.6025,3.6073,3.5988,3.5985,3.5982,3.5936,3.5928,3.5922,0,0,0,0,0,3.6035,3.6003,3.6018,3.6016,3.6013,3.6002,3.6001,3.6021,3.6043,3.6028,3.6038,3.6059,3.6029,3.6048,3.6045,3.6021,3.599,3.5986,3.5982,3.5939,3.593,3.5922,0,0,0,0,0,0,3.5986,3.6005,3.6021,3.5993,3.5995,3.6009,3.5991,3.6011,3.6006,3.6011,3.6034,3.6036,3.6008,3.6013,3.6034,3.5983,3.6013,3.6009,3.5981,3.5973,3.5966,3.5965,3.6072,0,0,0,0,0,3.5972,3.5962,3.5979,3.5952,3.5953,3.5972,3.5967,3.5983,3.5986,3.5987,3.5995,3.5996,3.5987,3.598,3.5973,3.5937,3.5939,3.5919,3.5912,3.5906,3.5902,3.5883,3.5874,3.5968,3.5968,3.5968,0,0,3.5942,3.5952,3.5944,3.5942,3.5946,3.5935,3.5972,3.5958,3.5949,3.5984,3.5963,3.5969,3.5972,3.5942,3.593,3.5945,3.5877,3.5902,3.5897,3.5895,3.5878,3.587,3.5862,3.5965,3.5966,3.5966,0,0,3.5882,3.5889,3.5867,3.5871,3.5877,3.589,3.5885,3.5896,3.5902,3.5882,3.5908,3.5897,3.5881,3.5882,3.588,3.5822,3.5841,3.5818,3.578,3.5762,3.5755,3.5748,3.5727,3.5719,3.5814,3.5814,3.5814,0,3.5844,3.5829,3.5853,3.5838,3.5836,3.5869,3.5847,3.5849,3.5851,3.5849,3.5867,3.5847,3.5852,3.5823,3.5809,3.5806,3.58,3.5817,3.5754,3.5748,3.5742,3.5722,3.5714,3.5811,3.5811,3.5812,3.5812,0,3.5782,3.577,3.5752,3.5756,3.5752,3.5733,3.5753,3.5747,3.5763,3.5773,3.5752,3.5758,3.5753,3.5747,3.5762,3.572,3.573,3.575,3.5781,3.573,3.5712,3.5704,3.5807,3.5808,3.5809,3.581,0,0,3.5689,3.5708,3.5701,3.5703,3.5713,3.5704,3.5686,3.5682,3.5676,3.5677,3.5662,3.5648,3.5668,3.5666,3.5681,3.5665,3.5618,3.5688,3.5688,3.5674,3.5572,3.5556,3.5546,3.5631,3.563,3.5629,3.5571,0,3.5632,3.5604,3.5626,3.5593,3.5583,3.5615,3.5599,3.5603,3.5613,3.5605,3.5615,3.5605,3.5632,3.5631,3.5617,3.5626,3.5597,3.5631,3.5616,3.5615,3.5614,3.5537,3.5519,3.5465,3.5564,3.5563,3.5562,0,3.5561,3.556,3.5527,3.554,3.5536,3.5522,3.552,3.5513,3.5517,3.5525,3.5524,3.5544,3.5526,3.5557,3.5533,3.5555,3.555,3.5554,3.5553,3.5551,3.5585,3.5532,3.5448,3.5439,3.5551,3.5552,3.5553,0,3.5496,3.5487,3.5466,3.5467,3.5481,3.547,3.5476,3.5482,3.5479,3.5477,3.5475,3.547,3.5468,3.5463,3.5481,3.5502,3.5454,3.5486,3.5459,3.5459,3.5447,3.5447,3.536,3.5445,3.5445,3.5445,3.5446,0,3.5429,3.5407,3.5437,3.5424,3.5401,3.5426,3.5402,3.541,3.5416,3.5404,3.5431,3.542,3.5444,3.5435,3.5448,3.5426,3.5424,3.543,3.5433,3.5427,3.5426,3.5423,3.5427,3.5443,3.5444,3.5444,3.5445,0,3.5352,3.5372,3.5351,3.5367,3.537,3.5352,3.5365,3.5353,3.5366,3.5351,3.5348,3.5367,3.5358,3.5375,3.5367,3.5377,3.5345,3.5355,3.5344,3.5346,3.5318,3.532,3.5225,3.5214,3.5307,3.5306,3.5305,0,3.5307,3.5292,3.5306,3.5301,3.5306,3.5297,3.5294,3.5318,3.5314,3.5318,3.5305,3.5299,3.5294,3.5277,3.5289,3.5283,3.5293,3.526,3.5292,3.5286,3.5292,3.5292,3.529,3.5253,3.5252,3.5251,3.525,0,3.5226,3.5237,3.5232,3.5231,3.5227,3.5227,3.5229,3.5223,3.5248,3.5242,3.5233,3.523,3.5223,3.5215,3.5213,3.5217,3.5237,3.524,3.5234,3.5226,3.522,3.5223,3.5325,3.5242,3.5243,3.5243,3.5244,3.5244,3.5164,3.5151,3.516,3.5154,3.5158,3.5159,3.5149,3.5161,3.5155,3.5152,3.5166,3.5154,3.5159,3.5158,3.516,3.5151,3.5165,3.5155,3.5153,3.515,3.5145,3.5223,3.515,3.515,3.5151,3.5151,3.5151,0,3.5083,3.5091,3.5085,3.5088,3.5083,3.5104,3.5108,3.5102,3.5091,3.5095,3.5091,3.5081,3.5074,3.5086,3.5081,3.5071,3.508,3.5068,3.5069,3.507,3.5133,3.5139,3.5061,3.5061,3.5061,3.5061,3.5061,3.5061,3.5041,3.5021,3.5033,3.5016,3.5023,3.5013,3.5013,3.5013,3.5017,3.5005,3.5,3.5009,3.5016,3.5011,3.5006,3.5009,3.5006,3.4991,3.4998,3.5056,3.5065,3.5073,3.5079,3.499,3.499,3.4935,3.4935,3.4934]}]]